Regional Weather Roundup
Issued by NWS

Home | Current Version | Previous Version | Graphics & Text | Print | Product List | Glossary On
Versions: 1 2 3 4 5 6 7 8 9 10 11 12 13 14 15 16 17 18 19 20 21 22 23 24 25 26 27 28
000
ASUS45 KPSR 250910
RWRAZ

ARIZONA HOURLY REGIONAL WEATHER ROUNDUP
NATIONAL WEATHER SERVICE PHOENIX AZ
200 AM MST SAT FEB 25 2017

NOTE: FAIR INDICATES FEW OR NO CLOUDS BELOW 12,000 FEET WITH NO
SIGNIFICANT WEATHER AND/OR OBSTRUCTIONS TO VISIBILITY.

AZZ001>003-036-251000-
NORTHWEST ARIZONA

CITY           SKY/WX    TMP DP  RH WIND       PRES   REMARKS
BULLHEAD CITY  CLEAR     45  25  45 E5        30.14S
KINGMAN        CLEAR     26   8  46 CALM      30.12S
$$

AZZ004>008-015-016-018-251000-
NORTH CENTRAL ARIZONA

CITY           SKY/WX    TMP DP  RH WIND       PRES   REMARKS
GRAND CANYON   CLEAR     14  10  84 CALM      30.08F
WILLIAMS       CLEAR     18  10  73 S7        30.08S WCI   8
PRESCOTT       CLEAR     26  15  63 CALM      30.11S
FLAGSTAFF      CLEAR     18  11  74 CALM      30.07F
PAYSON         CLEAR     28  19  69 CALM      30.14S
PAGE           CLEAR     32   3  29 CALM      30.10F
$$

AZZ009>014-017-251000-
NORTHEAST ARIZONA

CITY           SKY/WX    TMP DP  RH WIND       PRES   REMARKS
WINSLOW        CLEAR     27  16  63 CALM      30.11F
SAINT JOHNS    CLEAR     24  13  62 CALM      30.09S
WINDOW ROCK    CLEAR     16   8  71 CALM      30.08S
SHOW LOW       CLEAR     25  14  63 S9        30.10S WCI  15
$$

AZZ023-251000-
GREATER PHOENIX AREA

CITY           SKY/WX    TMP DP  RH WIND       PRES   REMARKS
PHOENIX        CLEAR     48  31  51 E8        30.11S
BUCKEYE        CLEAR     37  37 100 N8        30.13S WCI  31
LUKE AFB       CLEAR     42  31  66 NW7       30.11S
DEER VALLEY    CLEAR     41  33  73 CALM      30.12R
SCOTTSDALE     CLEAR     44  31  60 CALM      30.13R
MESA-GATEWAY   CLEAR     37  32  81 E7        30.14S WCI  32
$$

AZZ027-028-251000-
SOUTHWEST MARICOPA COUNTY AND PINAL COUNTY

CITY           SKY/WX    TMP DP  RH WIND       PRES   REMARKS
CASA GRANDE    NOT AVBL
$$

AZZ503-504-507>509-251000-
SOUTHEAST ARIZONA

CITY           SKY/WX    TMP DP  RH WIND       PRES   REMARKS
TUCSON         CLEAR     40  21  46 SE7       30.14F
DAVIS-MONTHAN  CLEAR     36  20  53 SE7       30.13S WCI  30
NOGALES        CLEAR     32  16  51 CALM      30.14S
SIERRA VISTA   CLEAR     35  16  44 S7        30.14F WCI  29
DOUGLAS        CLEAR     30  14  51 NE3       30.14S
SAFFORD        CLEAR     34  14  43 N3        30.12S
$$

AZZ020-021-025-026-031-251000-
SOUTHWEST ARIZONA

CITY           SKY/WX    TMP DP  RH WIND       PRES   REMARKS
YUMA           CLEAR     50  31  48 CALM      30.13S
$$

CAZ031-033-041-043-047-048-061-251000-
SOUTHERN CALIFORNIA

CITY           SKY/WX    TMP DP  RH WIND       PRES   REMARKS
DOWNTOWN L.A.  CLEAR     50  38  63 CALM      30.17S
L.A. AIRPORT   CLEAR     47  40  76 E5        30.17F
SAN DIEGO      CLEAR     51  36  56 NE5       30.18F
BURBANK        CLEAR     44  31  60 CALM      30.16S
ONTARIO        CLEAR     44  34  67 CALM      30.16F
RIVERSIDE      CLEAR     41  35  79 CALM      30.18S
PALM SPRINGS   CLEAR     48  37  65 NW3       30.16S
EL CENTRO NAS  CLEAR     45  28  51 SW7       30.15S
IMPERIAL       CLEAR     47  32  56 CALM      30.12F
BLYTHE         CLEAR     45  38  76 NW6       30.14S
NEEDLES        CLEAR     45  31  58 CALM      30.14R
$$

NVZ020-UTZ003-251000-
SOUTHERN NEVADA-UTAH

CITY           SKY/WX    TMP DP  RH WIND       PRES   REMARKS
LAS VEGAS      CLEAR     42  21  43 CALM      30.10F
SALT LAKE CITY PTCLDY    22  12  65 SE8       30.13S WCI  12
$$

NMZ009-TXZ055-251000-
NEW MEXICO-WEST TEXAS

CITY           SKY/WX    TMP DP  RH WIND       PRES   REMARKS
ALBUQUERQUE    CLEAR     31  -1  25 NW3       30.09F
EL PASO        CLEAR     47   7  19 W7        30.08S
$$


........................KEY........................
SKY/WX - SKY CONDITION/WEATHER
TMP    - TEMPERATURE IN FAHRENHEIT
DP     - DEW POINT IN FAHRENHEIT
RH     - RELATIVE HUMIDITY IN PERCENT
WIND   - DIRECTION AND SPEED IN MILES PER HOUR (MPH)
VRB    - VARIABLE WIND DIRECTION
PRES   - MEAN SEA LEVEL PRESSURE IN INCHES OF MERCURY
         F - FALLING PRESSURE   R - RISING PRESSURE
         S - STEADY PRESSURE
VSB    - VISIBILITY IN MILES
HX     - HEAT INDEX IN FAHRENHEIT
WCI    - WIND CHILL INDEX IN FAHRENHEIT
TC     - TEMPERATURE IN CELSIUS WHICH IS ALSO KNOWN AS
         TEMPERATURE IN CENTIGRADE
AFB    - AIR FORCE BASE
         LUKE AFB IS LUKE AIR FORCE BASE
         DAVIS-MONTHAN IS DAVIS-MONTHAN AIR FORCE BASE
NAS    - NAVAL AIR STATION
         EL CENTRO NAS IS EL CENTRO NAVAL AIR STATION
N/A    - NOT AVAILABLE





USA.gov is the U.S. government's official web portal to all federal, state and local government web resources and services.